Location: Bemmer
(51.5498°N, 5.6249°E)
Time: 00:59:10
(UTC+00:00)

SJ 16-02 - Pass Details

Date: 03 March 2021
Orbit: 605 x 617 km, 75.0° (Epoch: 13 April)

Event Time Altitude Azimuth Distance (km) Brightness Sun altitude
Rises 21:11:57 0° 325° (NW) 2,885 5.8 -34.5°
Reaches altitude 10° 21:14:41 10° 308° (NW) 1,977 4.7 -34.8°
Enters shadow 21:16:34 17° 285° (WNW) 1,549 3.9 -35.0°
